�������l�o���
Date,Time,MP-1(��Sv/h),MP-2(��Sv/h),MP-3(��Sv/h),MP-4(��Sv/h),MP-5(��Sv/h),MP-6(��Sv/h),MP-7(��Sv/h),MP-8(��Sv/h),����,����(m/s),���J
2024/06/07,00:00,0.498,0.767,0.484,0.942,0.691,0.315,0.549,0.506,�k�k��,5.0,��
2024/06/07,00:10,0.499,0.767,0.482,0.941,0.692,0.316,0.550,0.506,�k�k��,4.8,��
2024/06/07,00:20,0.498,0.769,0.483,0.941,0.691,0.315,0.548,0.507,�k�k��,4.4,��
2024/06/07,00:30,0.499,0.768,0.482,0.941,0.691,0.313,0.551,0.508,�k�k��,5.2,��
2024/06/07,00:40,0.500,0.767,0.483,0.942,0.693,0.315,0.549,0.507,�k�k��,5.3,��
2024/06/07,00:50,0.499,0.768,0.483,0.941,0.691,0.314,0.548,0.507,�k�k��,5.7,��
2024/06/07,01:00,0.499,0.766,0.483,0.942,0.692,0.315,0.549,0.508,�k�k��,4.1,��
2024/06/07,01:10,0.498,0.766,0.483,0.942,0.694,0.316,0.549,0.506,�k��,5.1,��
2024/06/07,01:20,0.499,0.767,0.485,0.940,0.690,0.315,0.549,0.508,�k�k��,5.7,��
2024/06/07,01:30,0.498,0.767,0.481,0.941,0.692,0.314,0.550,0.508,�k�k��,5.6,��
2024/06/07,01:40,0.498,0.768,0.482,0.940,0.692,0.315,0.549,0.507,�k�k��,5.8,��
2024/06/07,01:50,0.499,0.766,0.483,0.941,0.691,0.315,0.549,0.507,�k�k��,5.8,��
2024/06/07,02:00,0.499,0.767,0.482,0.941,0.692,0.314,0.549,0.507,�k�k��,5.2,��
2024/06/07,02:10,0.497,0.766,0.483,0.942,0.691,0.314,0.549,0.505,�k�k��,5.0,��
2024/06/07,02:20,0.500,0.767,0.483,0.943,0.691,0.314,0.550,0.506,�k�k��,5.4,��
2024/06/07,02:30,0.498,0.766,0.482,0.940,0.693,0.314,0.549,0.506,�k�k��,5.0,��
2024/06/07,02:40,0.497,0.766,0.482,0.941,0.691,0.314,0.549,0.507,�k�k��,3.8,��
2024/06/07,02:50,0.498,0.767,0.482,0.940,0.691,0.312,0.551,0.507,�k��,3.6,��
2024/06/07,03:00,0.498,0.766,0.483,0.940,0.691,0.315,0.549,0.507,�k�k��,3.3,��
2024/06/07,03:10,0.499,0.767,0.484,0.941,0.691,0.313,0.551,0.506,�k�k��,3.9,��
2024/06/07,03:20,0.499,0.767,0.483,0.942,0.692,0.313,0.549,0.507,�k�k��,3.8,��
2024/06/07,03:30,0.497,0.766,0.481,0.942,0.690,0.314,0.550,0.507,�k�k��,3.2,��
2024/06/07,03:40,0.498,0.765,0.483,0.942,0.691,0.314,0.550,0.507,�k��,2.6,��
2024/06/07,03:50,0.498,0.768,0.481,0.940,0.691,0.314,0.549,0.507,�k�k��,4.1,��
2024/06/07,04:00,0.497,0.766,0.482,0.941,0.694,0.314,0.550,0.506,�k�k��,4.4,��
2024/06/07,04:10,0.498,0.766,0.483,0.940,0.691,0.314,0.549,0.507,�k�k��,3.7,��
2024/06/07,04:20,0.499,0.768,0.484,0.940,0.691,0.313,0.549,0.508,�k�k��,3.1,��
2024/06/07,04:30,0.498,0.766,0.484,0.940,0.691,0.312,0.547,0.508,�k�k��,3.7,��
2024/06/07,04:40,0.497,0.765,0.482,0.941,0.689,0.313,0.547,0.507,�k�k��,3.2,��
2024/06/07,04:50,0.497,0.765,0.482,0.941,0.692,0.312,0.546,0.506,�k�k��,2.9,��
2024/06/07,05:00,0.498,0.766,0.483,0.942,0.689,0.313,0.546,0.508,�k�k��,3.3,��
2024/06/07,05:10,0.496,0.767,0.482,0.940,0.690,0.313,0.547,0.507,�k�k��,2.6,��
2024/06/07,05:20,0.498,0.767,0.483,0.940,0.688,0.314,0.548,0.506,�k�k��,2.9,��
2024/06/07,05:30,0.499,0.765,0.483,0.941,0.690,0.313,0.545,0.506,�k�k��,2.3,��
2024/06/07,05:40,0.498,0.766,0.484,0.939,0.691,0.313,0.546,0.506,�k�k��,3.2,��
2024/06/07,05:50,0.498,0.766,0.482,0.942,0.692,0.313,0.546,0.507,�k�k��,3.4,��
2024/06/07,06:00,0.497,0.767,0.482,0.940,0.689,0.314,0.546,0.507,�k�k��,3.1,��
2024/06/07,06:10,0.496,0.766,0.484,0.942,0.690,0.312,0.546,0.507,�k�k��,3.1,��
2024/06/07,06:20,0.497,0.767,0.483,0.941,0.692,0.311,0.546,0.505,�k�k��,2.9,��
2024/06/07,06:30,0.497,0.764,0.483,0.942,0.691,0.311,0.545,0.507,�k�k��,3.5,��
2024/06/07,06:40,0.498,0.766,0.484,0.940,0.691,0.312,0.546,0.507,�k�k��,3.0,��
2024/06/07,06:50,0.498,0.765,0.482,0.939,0.690,0.312,0.545,0.505,�k��,2.5,��
2024/06/07,07:00,0.497,0.765,0.482,0.942,0.691,0.312,0.545,0.506,�k�k��,2.8,��
2024/06/07,07:10,0.497,0.768,0.484,0.942,0.691,0.313,0.545,0.504,�k�k��,2.0,��
2024/06/07,07:20,0.496,0.765,0.484,0.940,0.691,0.312,0.545,0.504,�k�k��,1.9,��
2024/06/07,07:30,0.498,0.764,0.483,0.941,0.691,0.312,0.545,0.504,�k�k��,2.3,��
2024/06/07,07:40,0.495,0.763,0.482,0.941,0.689,0.312,0.546,0.504,�k�k��,1.7,��
2024/06/07,07:50,0.496,0.765,0.481,0.941,0.691,0.312,0.545,0.506,�k��,1.5,��
2024/06/07,08:00,0.497,0.766,0.482,0.940,0.689,0.312,0.544,0.504,�k��,0.9,��
2024/06/07,08:10,0.497,0.764,0.483,0.941,0.691,0.311,0.544,0.506,�k��,1.7,��
2024/06/07,08:20,0.497,0.764,0.484,0.940,0.689,0.311,0.546,0.506,�k,2.0,��
2024/06/07,08:30,0.497,0.762,0.481,0.941,0.691,0.311,0.546,0.505,�k�k��,1.9,��
2024/06/07,08:40,0.494,0.765,0.481,0.943,0.690,0.311,0.545,0.506,�k,2.3,��
2024/06/07,08:50,0.495,0.764,0.481,0.941,0.687,0.312,0.547,0.505,�k�k��,2.0,��
2024/06/07,09:00,0.495,0.763,0.481,0.942,0.689,0.312,0.545,0.503,�k�k��,2.3,��
2024/06/07,09:10,0.496,0.765,0.481,0.940,0.690,0.312,0.548,0.503,�k�k��,2.6,��
2024/06/07,09:20,0.495,0.764,0.482,0.942,0.689,0.312,0.545,0.503,�k�k��,3.4,��
2024/06/07,09:30,0.494,0.764,0.481,0.940,0.689,0.312,0.545,0.502,�k�k��,2.8,��
2024/06/07,09:40,0.496,0.764,0.480,0.942,0.691,0.311,0.545,0.505,�k�k��,3.0,��
2024/06/07,09:50,0.496,0.764,0.481,0.941,0.690,0.311,0.545,0.505,�k�k��,3.3,��
2024/06/07,10:00,0.496,0.763,0.482,0.942,0.690,0.312,0.547,0.503,�k�k��,3.5,��
2024/06/07,10:10,0.496,0.763,0.482,0.942,0.689,0.312,0.545,0.504,�k�k��,3.5,��
2024/06/07,10:20,0.496,0.764,0.482,0.940,0.690,0.312,0.546,0.505,�k�k��,3.3,��
2024/06/07,10:30,0.496,0.765,0.480,0.941,0.689,0.311,0.546,0.505,�k�k��,2.6,��
2024/06/07,10:40,0.497,0.764,0.481,0.944,0.687,0.311,0.547,0.504,�k��,2.3,��
2024/06/07,10:50,0.498,0.764,0.481,0.939,0.690,0.312,0.547,0.504,�k��,2.3,��
2024/06/07,11:00,0.496,0.765,0.480,0.941,0.689,0.312,0.547,0.503,�k��,1.9,��
2024/06/07,11:10,0.497,0.764,0.481,0.942,0.689,0.313,0.547,0.504,���k��,2.0,��
2024/06/07,11:20,0.496,0.765,0.482,0.941,0.689,0.312,0.548,0.504,���k��,2.3,��
2024/06/07,11:30,0.497,0.765,0.480,0.942,0.690,0.313,0.547,0.504,���k��,2.6,��
2024/06/07,11:40,0.496,0.764,0.480,0.942,0.688,0.312,0.547,0.507,���k��,1.7,��
2024/06/07,11:50,0.498,0.765,0.481,0.942,0.689,0.312,0.547,0.504,�k��,2.3,��
2024/06/07,12:00,0.496,0.764,0.479,0.942,0.691,0.313,0.547,0.503,���k��,2.6,��
2024/06/07,12:10,0.497,0.766,0.481,0.941,0.691,0.313,0.547,0.503,�k��,3.2,��
2024/06/07,12:20,0.498,0.766,0.480,0.943,0.687,0.311,0.547,0.503,�k��,2.8,��
2024/06/07,12:30,0.498,0.765,0.481,0.943,0.688,0.312,0.549,0.504,�k��,3.2,��
2024/06/07,12:40,0.498,0.766,0.481,0.942,0.690,0.311,0.548,0.505,�k��,3.9,��
2024/06/07,12:50,0.497,0.763,0.480,0.940,0.690,0.311,0.547,0.505,���k��,3.2,��
2024/06/07,13:00,0.496,0.766,0.480,0.942,0.689,0.312,0.548,0.504,�k��,3.7,��
2024/06/07,13:10,0.497,0.767,0.480,0.941,0.690,0.312,0.547,0.506,���k��,3.4,��
2024/06/07,13:20,0.497,0.764,0.480,0.941,0.689,0.312,0.546,0.506,���k��,3.6,��
2024/06/07,13:30,0.498,0.765,0.482,0.942,0.690,0.312,0.548,0.506,���k��,3.1,��
2024/06/07,13:40,0.497,0.765,0.481,0.941,0.690,0.311,0.549,0.505,���k��,2.6,��
2024/06/07,13:50,0.498,0.765,0.482,0.941,0.691,0.312,0.547,0.505,���k��,2.6,��
2024/06/07,14:00,0.497,0.766,0.480,0.942,0.689,0.312,0.547,0.506,��,2.0,��
2024/06/07,14:10,0.497,0.767,0.480,0.941,0.688,0.313,0.546,0.504,�k��,2.5,��
2024/06/07,14:20,0.498,0.765,0.479,0.941,0.691,0.311,0.547,0.504,�k��,2.6,��
2024/06/07,14:30,0.498,0.766,0.481,0.941,0.691,0.312,0.547,0.506,���k��,1.9,��
2024/06/07,14:40,0.498,0.765,0.481,0.942,0.689,0.312,0.548,0.504,�k��,1.5,��
2024/06/07,14:50,0.498,0.766,0.479,0.944,0.690,0.312,0.548,0.505,���쓌,1.9,��
2024/06/07,15:00,0.497,0.767,0.482,0.942,0.690,0.312,0.547,0.505,���쓌,1.5,��
2024/06/07,15:10,0.497,0.768,0.483,0.943,0.689,0.311,0.548,0.506,�쓌,2.3,��
2024/06/07,15:20,0.497,0.766,0.480,0.941,0.690,0.313,0.549,0.505,�쓌,2.0,��
2024/06/07,15:30,0.497,0.765,0.480,0.944,0.691,0.312,0.547,0.504,��쓌,1.7,��
2024/06/07,15:40,0.497,0.767,0.481,0.945,0.691,0.313,0.548,0.504,�쓌,1.9,��
2024/06/07,15:50,0.499,0.766,0.481,0.943,0.691,0.314,0.548,0.505,���쓌,2.3,��
2024/06/07,16:00,0.498,0.765,0.483,0.941,0.690,0.314,0.547,0.504,�쓌,2.3,��
2024/06/07,16:10,0.499,0.767,0.482,0.941,0.691,0.313,0.548,0.504,���쓌,3.1,��
2024/06/07,16:20,0.497,0.766,0.481,0.943,0.690,0.313,0.548,0.504,���쓌,3.1,��
2024/06/07,16:30,0.499,0.767,0.481,0.941,0.690,0.314,0.548,0.506,���쓌,3.1,��
2024/06/07,16:40,0.499,0.767,0.482,0.941,0.691,0.313,0.548,0.504,��쓌,2.2,��
2024/06/07,16:50,0.498,0.766,0.481,0.943,0.688,0.313,0.548,0.504,�쓌,1.7,��
2024/06/07,17:00,0.498,0.767,0.481,0.941,0.690,0.313,0.548,0.503,�쓌,2.0,��
2024/06/07,17:10,0.496,0.768,0.482,0.943,0.690,0.313,0.547,0.505,���쓌,2.6,��
2024/06/07,17:20,0.498,0.769,0.482,0.944,0.692,0.312,0.548,0.503,�쓌,3.3,��
2024/06/07,17:30,0.498,0.770,0.481,0.945,0.691,0.312,0.549,0.505,�쓌,2.8,��
2024/06/07,17:40,0.498,0.769,0.482,0.944,0.689,0.311,0.547,0.504,��쓌,2.3,��
2024/06/07,17:50,0.496,0.769,0.483,0.945,0.692,0.314,0.549,0.505,��쓌,2.8,��
2024/06/07,18:00,0.498,0.769,0.482,0.944,0.690,0.312,0.548,0.506,��,3.0,��
2024/06/07,18:10,0.499,0.768,0.483,0.944,0.689,0.312,0.548,0.506,��,4.1,��
2024/06/07,18:20,0.496,0.769,0.482,0.944,0.691,0.313,0.548,0.505,��,4.2,��
2024/06/07,18:30,0.498,0.769,0.483,0.946,0.692,0.314,0.548,0.505,��,3.3,��
2024/06/07,18:40,0.497,0.769,0.483,0.944,0.692,0.313,0.548,0.505,��쓌,3.4,��
2024/06/07,18:50,0.499,0.770,0.483,0.946,0.694,0.313,0.549,0.507,��,3.9,��
2024/06/07,19:00,0.497,0.771,0.484,0.947,0.693,0.313,0.548,0.506,��,5.3,��
2024/06/07,19:10,0.498,0.770,0.483,0.942,0.693,0.314,0.549,0.508,��,6.0,��
2024/06/07,19:20,0.499,0.772,0.484,0.943,0.692,0.313,0.549,0.507,��,4.8,��
2024/06/07,19:30,0.499,0.769,0.484,0.945,0.694,0.314,0.552,0.508,��쓌,5.9,��
2024/06/07,19:40,0.500,0.770,0.484,0.945,0.693,0.314,0.550,0.507,��,6.1,��
2024/06/07,19:50,0.499,0.769,0.484,0.946,0.694,0.316,0.551,0.508,��,6.3,��
2024/06/07,20:00,0.499,0.769,0.484,0.944,0.694,0.314,0.550,0.507,��,6.2,��
2024/06/07,20:10,0.499,0.768,0.483,0.944,0.693,0.314,0.551,0.507,��,4.9,��
2024/06/07,20:20,0.497,0.770,0.483,0.942,0.693,0.315,0.551,0.506,��,4.8,��
2024/06/07,20:30,0.499,0.769,0.483,0.944,0.692,0.315,0.551,0.506,��,5.0,��
2024/06/07,20:40,0.498,0.769,0.483,0.945,0.692,0.315,0.552,0.508,��,5.1,��
2024/06/07,20:50,0.500,0.769,0.483,0.943,0.693,0.314,0.551,0.507,��,5.6,��
2024/06/07,21:00,0.499,0.767,0.483,0.944,0.693,0.314,0.550,0.506,��,6.1,��
2024/06/07,21:10,0.499,0.768,0.484,0.945,0.692,0.314,0.550,0.506,��,6.6,��
2024/06/07,21:20,0.500,0.768,0.483,0.944,0.693,0.315,0.551,0.507,��,6.1,��
2024/06/07,21:30,0.500,0.768,0.483,0.942,0.694,0.315,0.550,0.507,��,6.1,��
2024/06/07,21:40,0.500,0.769,0.485,0.944,0.694,0.316,0.551,0.506,��,5.7,��
2024/06/07,21:50,0.499,0.770,0.485,0.945,0.694,0.314,0.552,0.506,��,5.6,��
2024/06/07,22:00,0.500,0.768,0.483,0.943,0.694,0.314,0.550,0.508,��,6.4,��
2024/06/07,22:10,0.499,0.772,0.483,0.945,0.696,0.315,0.552,0.507,��,6.9,��
2024/06/07,22:20,0.499,0.771,0.483,0.944,0.697,0.314,0.551,0.506,��,6.3,��
2024/06/07,22:30,0.499,0.769,0.485,0.946,0.693,0.315,0.551,0.507,��,5.5,��
2024/06/07,22:40,0.500,0.770,0.484,0.945,0.694,0.316,0.553,0.507,��,5.2,��
2024/06/07,22:50,0.499,0.769,0.484,0.944,0.694,0.314,0.552,0.508,��,4.7,��
2024/06/07,23:00,0.498,0.769,0.482,0.945,0.694,0.313,0.550,0.506,��쐼,4.3,��
2024/06/07,23:10,0.500,0.770,0.483,0.944,0.694,0.315,0.551,0.508,��,4.2,��
2024/06/07,23:20,0.500,0.769,0.485,0.942,0.693,0.316,0.551,0.505,��,3.5,��
2024/06/07,23:30,0.498,0.769,0.482,0.945,0.695,0.315,0.551,0.508,��,2.6,��
2024/06/07,23:40,0.501,0.769,0.485,0.944,0.693,0.315,0.551,0.506,��,3.0,��
2024/06/07,23:50,0.498,0.768,0.483,0.945,0.694,0.316,0.550,0.507,��,3.4,��
